[[{"header":{"parameterUnit":"m.s-1","parameterCategory":1,"la1":30.2991,"la2":30.254,"lo1":-89.0895,"lo2":-89.0444,"dy":0.0017,"dx":0.0017,"nx":28,"ny":28,"refTime":"2024-02-23T09:00:00:Z","depth":0,"parameterNumber":2,"parameterNumberName":"U-component_of_WINDS"},"data":[0,0,0,0,0,0,0,0,0,0,0,0,0,0,0,0,0,0,0,0,0,0,0,0,0,0,0,0,0,0,0,0,0,0,0,0,0,0,0,0,0,0,0,0,0,0,0,0,0,0,0,0,0,0,0,0,0,0,2.4901,2.4902,0,2.493,2.493,2.493,2.4909,2.4908,2.4907,2.4906,2.4936,2.4938,2.494,0,0,0,0,0,0,0,0,0,0,0,0,0,2.4831,2.4832,2.4901,2.4902,2.4902,2.493,2.493,2.4931,2.4909,2.4908,2.4907,2.4906,2.4936,2.4938,2.494,0,0,0,0,0,0,0,0,0,0,0,0,0,2.4861,2.4833,2.4901,2.4895,2.4894,2.493,2.493,2.4931,2.4909,2.4908,2.4907,2.4905,2.4935,2.4938,2.494,2.4984,0,0,2.4948,2.4949,0,0,0,0,0,0,0,0,2.4859,2.4863,2.4895,2.4895,2.4895,2.4914,2.4916,2.4948,2.491,2.4904,2.4906,2.4905,2.493,2.4933,2.4942,2.4985,2.4986,2.4948,2.495,2.4951,2.4951,0,0,0,0,0,0,0,2.4857,2.4862,2.4913,2.4896,2.4895,2.4891,2.4894,2.4922,2.4925,2.4904,2.4903,2.4906,2.493,2.4939,2.4942,2.4987,2.4948,2.495,2.4952,2.4953,2.5071,2.5073,0,0,0,0,0,0,2.4855,2.486,2.4912,2.4913,2.4873,2.4894,2.4896,2.491,2.4924,2.4925,2.4907,2.4905,2.4936,2.4939,2.4943,2.4997,2.4951,2.4953,2.4954,2.5069,2.5071,2.5073,0,0,0,0,0,0,2.4854,2.486,2.491,2.4887,2.4893,2.4896,2.4911,2.4911,2.492,2.4927,2.4927,2.4916,2.4935,2.494,2.4974,2.4998,2.4954,2.4956,2.5067,2.507,2.5072,2.5104,0,0,0,0,0,0,2.4852,2.486,2.4875,2.4887,2.4894,2.494,2.4912,2.4912,2.4924,2.4922,2.4935,2.4936,2.4934,2.4971,2.4977,2.5,2.4958,2.5065,2.5069,2.5071,2.5101,2.5107,2.5113,0,0,0,0,0,2.4849,2.4883,2.4876,2.4883,2.4914,2.4942,2.4946,2.4942,2.4926,2.4943,2.4948,2.4936,2.4994,2.4975,2.4981,2.5006,2.5064,2.5068,2.5071,2.5098,2.5106,2.5112,0,0,0,0,0,0,2.4873,2.4884,2.4877,2.4915,2.4928,2.4938,2.4959,2.495,2.4968,2.4965,2.496,2.4964,2.5001,2.5007,2.4985,2.505,2.5027,2.5032,2.5045,2.5052,2.5058,2.5056,2.496,0,0,0,0,0,2.4883,2.4904,2.4913,2.4946,2.4953,2.4955,2.4967,2.4963,2.4976,2.4982,2.4989,2.5003,2.5024,2.5039,2.5059,2.5102,2.5106,2.5122,2.5128,2.5133,2.5138,2.5163,2.5171,2.5085,2.5085,2.5085,0,0,2.4903,2.4912,2.4925,2.4951,2.496,2.4984,2.4959,2.4984,2.5002,2.4986,2.5019,2.5025,2.5041,2.508,2.5098,2.5087,2.5163,2.5138,2.5141,2.5143,2.5168,2.5176,2.5183,2.5088,2.5087,2.5087,0,0,2.4952,2.496,2.4989,2.5,2.5015,2.5016,2.5024,2.5036,2.504,2.5073,2.5062,2.5084,2.5121,2.5133,2.5144,2.5201,2.5191,2.5207,2.5238,2.5263,2.527,2.5276,2.5298,2.5305,2.5212,2.5212,2.5212,0,2.4975,2.5009,2.5005,2.5032,2.5044,2.5031,2.5062,2.5072,2.5093,2.5103,2.5089,2.5137,2.5146,2.519,2.5204,2.5213,2.5222,2.5205,2.5269,2.5275,2.5281,2.5302,2.531,2.5214,2.5214,2.5214,2.5213,0,2.5038,2.5062,2.5084,2.5105,2.512,2.5148,2.515,2.5166,2.5162,2.5166,2.5202,2.5213,2.5236,2.5246,2.5242,2.529,2.5283,2.527,2.5246,2.5291,2.5311,2.5318,2.5217,2.5216,2.5215,2.5215,0,0,2.5101,2.5121,2.513,2.514,2.5157,2.5176,2.5205,2.5228,2.5243,2.5258,2.5283,2.5317,2.5305,2.5318,2.5315,2.5337,2.5384,2.5322,2.5322,2.5334,2.544,2.545,2.5459,2.5378,2.5379,2.5381,2.5439,0,2.5151,2.5201,2.52,2.5247,2.527,2.526,2.5285,2.5299,2.5304,2.5326,2.5331,2.5355,2.5338,2.5346,2.5367,2.5374,2.5405,2.5369,2.5403,2.5404,2.5399,2.5469,2.548,2.5534,2.5447,2.5448,2.5449,0,2.5216,2.5235,2.5285,2.5301,2.531,2.5333,2.5356,2.5376,2.5392,2.5395,2.541,2.5405,2.5436,2.5412,2.5456,2.5432,2.5446,2.5452,2.5454,2.5457,2.5429,2.5475,2.5551,2.556,2.546,2.546,2.5459,0,2.5259,2.5297,2.5332,2.5341,2.536,2.5377,2.5385,2.5401,2.5415,2.5436,2.5446,2.5469,2.5482,2.5501,2.5503,2.5485,2.5548,2.5523,2.5552,2.5552,2.5566,2.5565,2.5646,2.5574,2.5574,2.5573,2.5573,0,2.5316,2.5347,2.5351,2.5373,2.5408,2.5407,2.5443,2.545,2.5464,2.5488,2.5481,2.5503,2.5505,2.5529,2.5531,2.5568,2.5574,2.5578,2.5578,2.5578,2.5578,2.5587,2.5584,2.5576,2.5575,2.5575,2.5574,0,2.5369,2.5373,2.5411,2.5426,2.5431,2.5457,2.5471,2.5492,2.5497,2.5528,2.5535,2.5543,2.5572,2.5576,2.5608,2.561,2.5655,2.5651,2.565,2.5649,2.5678,2.5676,2.5769,2.5781,2.57,2.5701,2.5702,0,2.5405,2.5429,2.5448,2.5463,2.5473,2.5498,2.5514,2.5515,2.5531,2.5554,2.5573,2.5601,2.5623,2.5669,2.5678,2.5704,2.5701,2.5732,2.5705,2.5706,2.5703,2.5702,2.5705,2.5737,2.5738,2.5739,2.5739,0,2.5469,2.5471,2.5493,2.5517,2.5536,2.5555,2.5573,2.5586,2.559,2.561,2.5638,2.5656,2.569,2.5718,2.5745,2.5755,2.5749,2.5748,2.5756,2.5757,2.5756,2.5758,2.5665,2.5746,2.5745,2.5744,2.5744,2.5744,2.5515,2.5537,2.5554,2.558,2.5594,2.5612,2.5633,2.5642,2.5666,2.5694,2.5694,2.5726,2.5745,2.5779,2.5792,2.5818,2.5808,2.582,2.5823,2.5826,2.5829,2.5752,2.5823,2.5823,2.5823,2.5822,2.5822,0,2.558,2.5591,2.5615,2.5641,2.5663,2.5655,2.5675,2.5693,2.5722,2.574,2.5762,2.5797,2.5825,2.5838,2.5866,2.5885,2.5883,2.5892,2.5891,2.5894,2.5836,2.5826,2.5893,2.5893,2.5893,2.5893,2.5893,2.5893,2.5616,2.5653,2.5657,2.5702,2.5713,2.5744,2.5757,2.5774,2.5788,2.5827,2.5851,2.5859,2.5876,2.5905,2.5932,2.5935,2.5946,2.5957,2.5959,2.5905,2.5898,2.5891,2.5882,2.5959,2.5959,2.6015,2.6015,2.6016]},{"header":{"parameterUnit":"m.s-1","parameterCategory":1,"la1":30.2991,"la2":30.254,"lo1":-89.0895,"lo2":-89.0444,"dy":0.0017,"dx":0.0017,"nx":28,"ny":28,"refTime":"2024-02-23T09:00:00:Z","depth":0,"parameterNumber":3,"parameterNumberName":"V-component_of_WINDS"},"data":[0,0,0,0,0,0,0,0,0,0,0,0,0,0,0,0,0,0,0,0,0,0,0,0,0,0,0,0,0,0,0,0,0,0,0,0,0,0,0,0,0,0,0,0,0,0,0,0,0,0,0,0,0,0,0,0,0,0,-4.4132,-4.4133,0,-4.4204,-4.4205,-4.4205,-4.4193,-4.4192,-4.4191,-4.419,-4.4261,-4.4264,-4.4267,0,0,0,0,0,0,0,0,0,0,0,0,0,-4.3985,-4.3987,-4.4132,-4.4133,-4.4134,-4.4204,-4.4205,-4.4206,-4.4193,-4.4192,-4.419,-4.4189,-4.426,-4.4263,-4.4267,0,0,0,0,0,0,0,0,0,0,0,0,0,-4.4052,-4.3988,-4.4132,-4.4136,-4.4138,-4.4204,-4.4205,-4.4206,-4.4194,-4.4192,-4.419,-4.4188,-4.4259,-4.4263,-4.4267,-4.4333,0,0,-4.4281,-4.4283,0,0,0,0,0,0,0,0,-4.4048,-4.4057,-4.4135,-4.4136,-4.4138,-4.4188,-4.4179,-4.4248,-4.4194,-4.4172,-4.419,-4.4187,-4.4238,-4.4244,-4.4261,-4.4336,-4.4339,-4.4282,-4.4285,-4.4287,-4.4288,0,0,0,0,0,0,0,-4.4043,-4.4054,-4.4161,-4.4136,-4.4138,-4.4135,-4.4142,-4.4192,-4.4215,-4.4174,-4.4173,-4.4182,-4.4238,-4.4257,-4.4263,-4.434,-4.4282,-4.4286,-4.4289,-4.429,-4.4475,-4.4477,0,0,0,0,0,0,-4.4038,-4.405,-4.4158,-4.4163,-4.4087,-4.4139,-4.4147,-4.4173,-4.4214,-4.4218,-4.4184,-4.4181,-4.425,-4.4258,-4.4265,-4.4346,-4.4287,-4.4291,-4.4294,-4.4472,-4.4475,-4.4477,0,0,0,0,0,0,-4.4034,-4.4047,-4.4155,-4.4106,-4.412,-4.4143,-4.4173,-4.4176,-4.4195,-4.4221,-4.4225,-4.4199,-4.4249,-4.4259,-4.4317,-4.4348,-4.4293,-4.4297,-4.447,-4.4473,-4.4476,-4.4507,0,0,0,0,0,0,-4.403,-4.4046,-4.4071,-4.4107,-4.4123,-4.4206,-4.4175,-4.4179,-4.4203,-4.4201,-4.4237,-4.4241,-4.4248,-4.431,-4.4321,-4.4354,-4.4301,-4.4467,-4.4471,-4.4475,-4.4503,-4.4511,-4.4517,0,0,0,0,0,-4.4025,-4.4076,-4.4073,-4.4086,-4.4155,-4.4208,-4.4217,-4.4225,-4.4205,-4.4231,-4.4248,-4.424,-4.4343,-4.4316,-4.4329,-4.4363,-4.4465,-4.447,-4.4475,-4.45,-4.4509,-4.4517,0,0,0,0,0,0,-4.4043,-4.4081,-4.4077,-4.4142,-4.4172,-4.4206,-4.4238,-4.4234,-4.4269,-4.4266,-4.4274,-4.4282,-4.4341,-4.4358,-4.4327,-4.4429,-4.4401,-4.4409,-4.4416,-4.4425,-4.4432,-4.4427,-4.4305,0,0,0,0,0,-4.4054,-4.4095,-4.4126,-4.418,-4.4195,-4.4214,-4.4237,-4.4242,-4.4272,-4.4285,-4.4306,-4.4336,-4.4376,-4.4401,-4.4439,-4.4506,-4.4514,-4.4535,-4.4542,-4.4548,-4.4554,-4.4592,-4.4603,-4.4493,-4.4493,-4.4493,0,0,-4.4078,-4.4104,-4.4129,-4.4184,-4.4208,-4.4249,-4.4225,-4.4269,-4.43,-4.4291,-4.4348,-4.4365,-4.4399,-4.4462,-4.4491,-4.4477,-4.4587,-4.4554,-4.4558,-4.4562,-4.4598,-4.4609,-4.4618,-4.4496,-4.4496,-4.4495,0,0,-4.4143,-4.4167,-4.4215,-4.424,-4.4276,-4.4289,-4.4301,-4.4336,-4.4347,-4.4404,-4.4398,-4.4435,-4.4503,-4.4528,-4.4549,-4.4626,-4.462,-4.4638,-4.4675,-4.4711,-4.472,-4.4728,-4.4756,-4.4766,-4.4644,-4.4644,-4.4644,0,-4.4168,-4.4231,-4.424,-4.4286,-4.4311,-4.4306,-4.4355,-4.4378,-4.4425,-4.4442,-4.4427,-4.4513,-4.4535,-4.4605,-4.4624,-4.4641,-4.4655,-4.4634,-4.4718,-4.4726,-4.4733,-4.476,-4.4771,-4.4646,-4.4646,-4.4646,-4.4646,0,-4.426,-4.4304,-4.4339,-4.4385,-4.4414,-4.4461,-4.4478,-4.4505,-4.4508,-4.4522,-4.4581,-4.4608,-4.4652,-4.4668,-4.467,-4.4739,-4.473,-4.4716,-4.4689,-4.4746,-4.4771,-4.4782,-4.4649,-4.4649,-4.4648,-4.4648,0,0,-4.4337,-4.439,-4.4402,-4.4424,-4.4465,-4.4499,-4.4547,-4.4591,-4.4615,-4.4647,-4.4688,-4.4746,-4.4735,-4.4759,-4.4764,-4.4796,-4.4857,-4.4779,-4.478,-4.4793,-4.4935,-4.4945,-4.4957,-4.4853,-4.4855,-4.4856,-4.4933,0,-4.4407,-4.4491,-4.4502,-4.4577,-4.4618,-4.4615,-4.4656,-4.4686,-4.4701,-4.4738,-4.4754,-4.4796,-4.4777,-4.4792,-4.4824,-4.4843,-4.4885,-4.4837,-4.4891,-4.4892,-4.4882,-4.497,-4.4981,-4.5051,-4.4943,-4.4944,-4.4945,0,-4.4499,-4.4536,-4.4615,-4.4652,-4.467,-4.4707,-4.4749,-4.4784,-4.4818,-4.4827,-4.4856,-4.4857,-4.4906,-4.4877,-4.4945,-4.4912,-4.4935,-4.4947,-4.495,-4.4956,-4.4922,-4.4978,-4.5074,-4.5084,-4.4961,-4.496,-4.4959,0,-4.4548,-4.4617,-4.4674,-4.4693,-4.4737,-4.4764,-4.4783,-4.4816,-4.4842,-4.4878,-4.4896,-4.4937,-4.496,-4.4992,-4.5005,-4.4982,-4.5073,-4.5044,-4.5082,-4.5082,-4.5101,-4.5099,-4.5201,-4.5115,-4.5115,-4.5114,-4.5114,0,-4.4624,-4.4673,-4.4697,-4.4732,-4.4787,-4.4799,-4.4853,-4.4872,-4.4901,-4.494,-4.4939,-4.4976,-4.499,-4.5028,-4.5038,-4.5094,-4.5104,-4.5113,-4.5115,-4.5113,-4.5112,-4.5128,-4.5124,-4.5117,-4.5117,-4.5116,-4.5116,0,-4.4688,-4.4706,-4.4768,-4.4806,-4.4817,-4.4856,-4.4888,-4.4922,-4.4937,-4.4986,-4.4999,-4.5023,-4.5068,-4.5084,-4.5139,-4.5146,-4.5211,-4.5209,-4.52,-4.5201,-4.5238,-4.5234,-4.5353,-4.537,-4.5272,-4.5273,-4.5274,0,-4.4736,-4.4774,-4.4816,-4.4842,-4.4863,-4.4906,-4.4933,-4.4946,-4.4975,-4.5018,-4.5047,-4.5093,-4.513,-4.5203,-4.5225,-4.5268,-4.5267,-4.5306,-4.5273,-4.5271,-4.5268,-4.5266,-4.5271,-4.5312,-4.5313,-4.5314,-4.5314,0,-4.4819,-4.4826,-4.4866,-4.491,-4.4943,-4.4978,-4.5011,-4.5033,-4.5051,-4.5083,-4.5131,-4.516,-4.5218,-4.5263,-4.5307,-4.5327,-4.5324,-4.5325,-4.5336,-4.5334,-4.5328,-4.5333,-4.5217,-4.5322,-4.5321,-4.5321,-4.532,-4.532,-4.4876,-4.491,-4.4946,-4.4991,-4.5018,-4.505,-4.5085,-4.5105,-4.5145,-4.5194,-4.5199,-4.525,-4.5285,-4.5344,-4.5366,-4.5406,-4.5396,-4.5411,-4.5415,-4.5419,-4.5423,-4.5322,-4.5414,-4.5414,-4.5414,-4.5414,-4.5414,0,-4.496,-4.4983,-4.5024,-4.5072,-4.5108,-4.5104,-4.5141,-4.5171,-4.5217,-4.5249,-4.5287,-4.5342,-4.5387,-4.5413,-4.5458,-4.5486,-4.5486,-4.5497,-4.5495,-4.55,-4.5429,-4.5416,-4.5497,-4.5497,-4.5497,-4.5497,-4.5496,-4.5496,-4.5007,-4.5066,-4.5078,-4.515,-4.5173,-4.5224,-4.5246,-4.5275,-4.5302,-4.5364,-4.5402,-4.5419,-4.545,-4.5497,-4.5539,-4.5545,-4.5562,-4.5575,-4.558,-4.5514,-4.5505,-4.5497,-4.5484,-4.5578,-4.5578,-4.5648,-4.5649,-4.5649]}]]